Location: Newport
(44.6370°N, 124.0520°W)
Time: 13:03:14
(UTC-08:00)

Envisat - Pass Details

Date: 14 October 2017
Orbit: 764 x 766 km, 98.2° (Epoch: 14 December)

Event Time Altitude Azimuth Distance (km) Brightness Sun altitude
Exits shadow 22:20:43 18° 281° (W) 1,836 5.4 -39.9°
Drops below altitude 10° 22:23:24 10° 312° (NW) 2,313 6.1 -40.3°
Sets 22:26:27 0° 331° (NNW) 3,245 7.0 -40.7°
